Location: Le Breil
(47.6141°N, 1.7027°W)
Time: 12:43:49
(UTC+00:00)

Daily predictions for brighter satellites

Satellite Brightness Start Highest point End
(mag) Time Altitude Azimuth Time Altitude Azimuth Time Altitude Azimuth
ATLAS 2AS CENTAUR R/B 4.3 18:42:21 10° W 18:48:49 34° NNW 18:55:04 10° NE
Landsat 7 4.1 18:44:55 10° S 18:49:37 75° WSW 18:54:20 10° NNW
Cosmos 1842 4.0 18:48:57 10° NNE 18:52:07 28° ENE 18:55:16 10° SE
USA 59 Rocket 0.1 18:49:31 10° NW 18:53:15 66° NE 18:58:24 10° SE
Cosmos 1536 4.2 18:51:18 10° SE 18:53:52 17° E 18:56:27 10° NE
Cosmos 2061 Rocket 4.1 18:48:28 10° S 18:54:54 85° E 19:01:23 10° N
COSMOS 2428 2.8 18:49:26 10° S 18:54:58 55° ESE 19:00:35 10° NE
Cosmos 1707 3.6 18:52:55 10° NNE 18:55:55 25° ENE 18:58:54 10° SE
Cosmos 2292 Rocket 4.5 18:54:38 10° NNW 18:58:09 41° W 19:01:05 10° SSW
Cosmos 1818 3.7 18:54:32 10° SW 19:00:00 83° NW 19:05:32 10° NE
Okean O Rocket 3.2 18:58:13 10° ESE 19:01:19 19° ENE 19:04:25 10° NNE
Cosmos 1626 4.2 19:01:11 10° NW 19:03:43 25° W 19:06:14 10° SSW
Meteor 2-4 Rocket 4.4 19:00:29 10° NNW 19:06:21 64° W 19:12:08 10° S
Cosmos 2278 Rocket 2.4 19:00:50 10° NNW 19:06:23 53° ENE 19:11:55 10° SE
USA 306 2.2 19:03:47 10° WSW 19:06:47 80° NNW 19:10:21 10° ENE
DMSP B5D1-3 4.4 19:03:23 10° NNE 19:08:29 76° ESE 19:13:32 10° S
CZ-4B DEB 4.2 19:03:32 10° SSE 19:08:59 65° ENE 19:14:25 10° N
Tsikada Rocket 4.4 19:02:47 10° NNW 19:09:03 72° W 19:15:21 10° S
CZ-4 R/B 1.5 19:06:18 10° SE 19:09:58 48° ENE 19:13:44 10° N
CZ-4B R/B 3.6 19:08:27 10° SE 19:13:33 42° ENE 19:18:35 10° N
NOSS 2-1 (C) 3.6 19:09:50 10° NW 19:13:36 84° SW 19:18:48 10° SE
Cosmos 1766 Rocket 3.5 19:09:29 10° S 19:13:46 63° E 19:18:08 10° NNE
Resurs 01 Rocket 2.1 19:11:25 10° SE 19:15:34 41° ENE 19:19:43 10° N
TSX-5 4.1 19:12:36 10° NW 19:15:38 50° WSW 19:18:50 10° SSE
USA 290 2.3 19:13:41 10° NNW 19:16:58 60° ENE 19:20:13 10° SSE
Helios 1A 2.9 19:13:08 10° NNE 19:17:09 56° ESE 19:21:08 10° S
YAOGAN 1 3.9 19:13:53 10° S 19:17:56 41° W 19:22:01 10° NNW
ADEOS 3.6 19:12:55 10° SSE 19:18:08 88° WSW 19:23:23 10° NNW
GEOS 3 Rocket 3.6 19:13:55 10° SE 19:19:08 73° NE 19:24:19 10° NW
USA 186 2.3 19:17:47 10° SE 19:20:48 39° ENE 19:23:52 10° N
CZ-4B R/B 3.4 19:16:14 10° SSE 19:20:58 82° WSW 19:25:49 10° NNW
Cosmos 1814 Rocket 4.0 19:16:04 10° SSW 19:21:21 76° ESE 19:26:36 10° NNE
Cosmos 2360 Rocket 4.3 19:16:36 10° WSW 19:21:29 30° NW 19:26:24 10° NNE
PAYLOAD B 4.3 19:16:34 10° SSE 19:22:05 65° ENE 19:27:40 10° N
Cosmos 1743 3.6 19:18:51 10° SSW 19:22:19 49° WNW 19:25:48 10° N
KORONAS-FOTON 3.6 19:19:24 10° N 19:23:06 69° E 19:26:46 10° SSE
SPOT 5 4.3 19:22:15 14° E 19:24:19 18° ENE 19:27:22 10° NNE
Okean-O 4.2 19:23:05 14° E 19:25:05 19° ENE 19:28:13 10° NNE
Cosmos 1408 Rocket 4.4 19:24:15 10° SSE 19:27:59 28° E 19:31:45 10° NNE
SKYMED 3 4.4 19:23:55 10° NNE 19:28:05 87° ESE 19:32:11 10° SSW
USA 267 4.3 19:22:31 10° ENE 19:28:29 40° N 19:34:28 10° WNW
ISS -3.3 19:25:24 10° SW 19:28:35 42° SSE 19:30:43 18° E
NOSS 3-3 (A) 4.5 19:24:44 10° S 19:29:12 28° ESE 19:34:11 10° ENE
SPOT 1/Viking Rocket 3.8 19:24:06 10° S 19:29:17 75° WSW 19:34:28 10° NNW
CZ-4B R/B 2.7 19:26:10 10° SSE 19:30:01 79° ENE 19:34:05 10° N
Kosmos-1783 4.0 19:29:14 10° WSW 19:31:20 30° NW 19:32:55 10° NNE
SL-08 R/B 3.6 19:28:50 10° NNE 19:33:46 79° WNW 19:38:41 10° SSW
Cosmos 2237 Rocket 2.4 19:28:42 10° S 19:34:01 46° ESE 19:39:23 10° NE
Aureole 3 Rocket 4.5 19:31:01 10° SSE 19:36:54 32° E 19:41:23 10° NNE
CSL-04 Rocket 3.7 19:32:02 10° SSE 19:37:17 58° ENE 19:42:29 10° N
Cosmos 2219 Rocket 3.8 19:33:31 10° WSW 19:38:46 37° NW 19:44:02 10° NNE
Cosmos 1674 3.6 19:37:39 10° NNW 19:40:50 41° W 19:43:57 10° SSW
Cosmos 1328 Rocket 4.1 19:37:10 10° NNW 19:41:23 58° W 19:45:36 10° S
Meteor 1-14 Rocket 4.2 19:37:21 10° S 19:42:53 89° E 19:48:27 10° NNE
Cosmos 1356 Rocket 3.4 19:38:53 10° N 19:43:06 88° E 19:47:16 10° S
Aureole 1 4.2 19:40:59 10° NNW 19:44:06 80° ENE 19:46:29 20° SSE
Lacrosse 4 Rocket 3.7 19:41:13 10° WNW 19:44:40 23° WSW 19:48:04 10° SSW
SJ-6B 3.8 19:42:15 10° S 19:45:43 42° W 19:49:10 10° NNW
Meteor 1-11 Rocket 3.8 19:40:32 10° SSE 19:45:57 51° E 19:51:18 10° NNE
Meteor 1-4 Rocket 3.1 19:43:33 10° NNW 19:46:05 40° W 19:48:37 10° S
CARTOSAT-1 3.5 19:46:16 10° SSE 19:50:30 90° ENE 19:54:47 10° NNW
ATLAS CENTAUR R/B 1.2 19:47:33 10° SSW 19:50:56 44° ESE 19:54:29 10° NE
Cosmos 158 Rocket 4.0 19:46:24 10° S 19:51:02 46° ESE 19:55:41 10° NNE
Cosmos 1805 Rocket 4.2 19:52:47 27° SE 19:54:04 33° E 19:57:57 10° NNE
Cosmos 1733 2.7 19:54:52 10° S 19:58:17 81° E 20:01:45 10° NNE
USA 276 2.1 19:57:39 10° WNW 20:00:25 49° SSW 20:00:38 48° S
In-Cosmos 22 4.1 19:55:16 10° N 20:01:00 84° ENE 20:06:00 13° SSE
Cosmos 2369 Rocket 3.5 19:58:27 10° N 20:03:07 25° NE 20:05:12 20° ENE
Cosmos 1980 3.6 19:57:49 10° SSW 20:03:29 81° ESE 20:09:13 10° NNE
SWARM A 4.2 20:03:48 24° S 20:05:48 80° E 20:09:20 10° N
Sich 1 3.1 20:07:33 32° SSE 20:09:11 51° E 20:13:22 10° NNE
BlueWalker 3 4.1 20:07:40 10° W 20:10:21 19° SW 20:12:13 14° S
Cosmos 1943 Rocket 2.2 20:05:01 10° NNW 20:10:33 79° WSW 20:14:05 23° SSE
NOSS 0 Rocket 4.2 20:05:50 10° SW 20:12:03 72° WNW 20:18:19 10° NNE
CSL-04 Debris 4.4 20:07:44 10° S 20:13:11 70° WSW 20:18:40 10° NNW
Terra 2.8 20:13:52 27° ENE 20:14:15 27° ENE 20:18:13 10° N
Cosmos 2298 Rocket 4.1 20:09:10 10° NNW 20:14:26 62° ENE 20:16:27 36° SE
ACS3 Solar Sail 1.8 20:09:36 17° SSE 20:14:44 81° ENE 20:21:10 10° N
ERS-1 Rocket 3.7 20:14:03 32° E 20:14:58 34° ENE 20:19:29 10° N
Nadezhda 4 Rocket 4.0 20:09:23 10° N 20:15:41 85° W 20:21:40 12° S
Cosmos 2195 Rocket 4.4 20:09:43 10° N 20:15:49 65° ENE 20:19:12 27° SSE
Cosmos 2150 Rocket 4.0 20:11:00 10° NNW 20:16:09 63° ENE 20:17:56 39° SE
Cosmos 1570 Rocket 3.9 20:10:57 10° SSW 20:16:14 87° ESE 20:21:32 10° NNE
USA 32 4.0 20:11:51 10° N 20:17:05 64° E 20:19:24 33° SSE
Cosmos 1975 4.1 20:18:58 25° NE 20:18:58 25° NE 20:21:02 10° NNE
Cosmos 1805 3.0 20:21:37 64° ENE 20:21:37 64° ENE 20:25:05 10° NNE
Cosmos 1315 Rocket 2.8 20:19:09 10° NNW 20:23:08 77° W 20:24:27 40° S
Cosmos 2026 Rocket 4.0 20:16:58 10° N 20:23:10 62° ENE 20:25:51 34° SE
Cosmos 1092 Rocket 4.0 20:17:21 10° N 20:23:40 62° ENE 20:26:28 34° SE
Ariane Rocket 4.1 20:24:21 26° ENE 20:24:37 26° ENE 20:28:47 10° N
Cosmos 836 Rocket 4.4 20:21:31 10° SSW 20:26:45 72° ESE 20:32:03 10° NNE
Cosmos 1536 4.2 20:25:54 10° SW 20:29:27 37° WNW 20:33:03 10° N
Cosmos 1125 Rocket 4.1 20:27:33 10° NNW 20:32:35 52° WSW 20:35:39 23° S
SL-16 R/B 2.6 20:35:16 40° E 20:35:16 40° E 20:39:46 10° NE
Okean O Rocket 2.2 20:35:02 28° SSW 20:37:11 55° W 20:41:33 10° NNW
Cosmos 1634 Rocket 4.0 20:36:32 38° SSE 20:38:46 59° E 20:44:59 10° NNE
USA 306 4.0 20:36:41 10° WNW 20:39:45 31° N 20:40:35 28° NNE
Cosmos 1656 Rocket 3.9 20:34:50 10° NNW 20:40:23 53° ENE 20:41:19 47° E
SL-14 R/B 3.1 20:36:59 10° N 20:40:36 80° NNW 20:40:36 80° NNW
USA 59 Rocket 2.5 20:39:39 10° WNW 20:42:41 18° WSW 20:46:22 10° SSW
PSLV R/B 4.0 20:44:13 56° WSW 20:44:13 56° WSW 20:47:42 10° NNW
CZ-4 R/B 4.1 20:42:30 10° SW 20:44:47 15° W 20:47:06 10° NW
IRS-1C Rocket 4.1 20:45:02 57° ESE 20:45:43 63° ENE 20:50:57 10° N
Cosmos 773 Rocket 3.9 20:45:39 52° SSE 20:46:47 69° ESE 20:52:04 10° NNE
Cosmos 2278 Rocket 3.9 20:45:26 10° NW 20:50:09 28° WSW 20:54:31 11° SSW
Cosmos 1500 Rocket 4.2 20:47:41 20° SSW 20:50:30 55° WNW 20:54:47 10° N
Resurs 01 Rocket 3.8 20:48:36 10° SW 20:52:07 23° W 20:55:40 10° NW
Cosmos 2228 Rocket 3.3 20:51:20 10° N 20:55:20 60° NE 20:55:20 60° NE
Cosmos 2034 Rocket 4.5 20:50:21 10° SSW 20:56:27 59° WNW 21:02:34 10° N
Cosmos 1743 Rocket 3.9 20:56:19 49° SW 20:57:12 62° W 21:01:31 10° N
MetOp-B 4.2 20:56:15 51° S 20:57:36 76° WSW 21:02:59 10° NNW
CRYOSAT 2 4.4 20:55:26 10° N 21:00:20 77° W 21:01:10 60° SSW
SPOT 3 Rocket 3.9 21:00:55 47° NE 21:00:55 47° NE 21:05:28 10° N
Okean-O 3.1 21:00:31 50° SW 21:01:05 53° W 21:05:25 10° NNW
SPOT 5 3.1 21:01:22 54° SW 21:01:58 59° W 21:06:23 10° NNW
NOSS 3-3 (C) 3.9 20:59:47 10° SW 21:05:13 76° NW 21:11:41 10° NE
ISS -1.6 21:02:03 10° W 21:03:42 25° W 21:03:42 25° W
USA 267 3.8 21:08:22 35° ENE 21:10:45 50° NNE 21:17:01 10° NW
Cosmos 2237 Rocket 3.8 21:13:09 10° WSW 21:18:14 34° NW 21:23:20 10° NNE
NOSS 3-3 (A) 4.3 21:14:04 10° WSW 21:19:29 60° NW 21:25:54 10° NE
Cosmos 2279 Rocket 3.8 21:20:00 77° SE 21:20:16 79° E 21:26:32 10° N
Cosmos 1607 3.9 21:17:05 10° SW 21:23:33 88° NW 21:30:03 10° NE
MOS 1 Rocket 4.1 21:24:48 48° WSW 21:25:20 50° W 21:30:29 10° NNW
ATLAS CENTAUR R/B 3.4 21:25:32 10° W 21:28:30 23° NW 21:29:51 19° N
Cosmos 2297 3.7 21:23:35 10° NNW 21:28:59 77° WNW 21:28:59 77° WNW
Spot 2 Rocket 3.8 21:31:06 65° NW 21:31:06 65° NW 21:35:28 10° NNW
NOSS 3-4 (A) 3.7 21:37:16 10° NW 21:44:08 80° SW 21:44:37 76° S
NOSS 3-4 (C) 3.7 21:37:23 10° NW 21:44:14 80° SW 21:44:43 77° S
Cosmos 2369 Rocket 2.5 21:42:00 10° NNW 21:46:58 63° WNW 21:46:58 63° WNW
Terra 3.1 21:52:34 36° WNW 21:52:34 36° WNW 21:56:06 10° NNW
ERS-1 Rocket 4.2 21:53:58 34° W 21:53:58 34° W 21:58:16 10° NNW
ACS3 Solar Sail 4.0 21:55:01 10° SW 21:59:29 20° W 22:03:59 10° NW
Ariane Rocket 4.1 22:04:29 40° WNW 22:04:29 40° WNW 22:08:12 10° NNW
Cosmos 2266 Rocket 4.3 22:04:15 10° NNW 22:09:40 65° NW 22:09:40 65° NW
SL-16 R/B 3.5 22:17:01 31° W 22:18:38 37° NW 22:23:52 10° NNE
ATLAS 2AS CENTAUR R/B 4.1 22:29:13 10° NW 22:35:10 29° NNE 22:36:31 27° NE
USA 267 4.0 22:55:43 46° WNW 22:55:43 46° WNW 23:00:07 10° NW
Cosmos 2344 4.0 23:19:16 10° NW 23:27:14 78° NNE 23:27:14 78° NNE
Cosmos 1980 Rocket 4.1 23:49:13 10° NNW 23:52:13 24° NNE 23:52:13 24° NNE
